Temp: 16.1°C   Hum: 77%
  Wind: 4.9mph   Dir: S (174°)
  Rain: 0.6mm Rate: 0.0mm/hr
  Pressure: 1017.7mb

Historic data

Bath Spa Weather Station Historical Data
Daily Summary for October 10, 2021 Units:  Metric    English   Both
Daily Weekly Monthly Yearly Custom
  High: Low: Average:
Temperature: 17.7 °C 9.3 °C 14 °C
Dew Point: 13 °C 7.3 °C 11.6 °C
Humidity: 92% 68% 83%
Wind Speed: 16.6km/h 0km/h 3.2km/h
Wind Gust: 29km/h - -
Wind- - ESE
Pressure: 1032.7 hPa 1029.3 hPa -
Precipitation: 0 mm    
Historical Graphs
 
 
Tabular Data for October 10, 2021
Time Temperature Dew Point Pressure Wind Wind Speed Wind Gust Humidity Rainfall Rate (Hourly) solar
00:09 12.9 °C 11.7 °C 1030 hPa Calm     89.3% 0 mm 0 W/m2
00:14 12.9 °C 11.6 °C 1030 hPa Calm     89% 0 mm 0 W/m2
00:19 12.9 °C 11.6 °C 1030 hPa Calm     89% 0 mm 0 W/m2
00:24 12.9 °C 11.7 °C 1030 hPa Calm     89.4% 0 mm 0 W/m2
00:29 13 °C 11.7 °C 1030 hPa Calm     89% 0 mm 0 W/m2
00:34 13 °C 11.7 °C 1030 hPa Calm     89% 0 mm 0 W/m2
00:39 13 °C 11.7 °C 1030 hPa Calm     89% 0 mm 0 W/m2
00:44 13 °C 11.7 °C 1030 hPa Calm     89% 0 mm 0 W/m2
00:49 13.1 °C 11.8 °C 1029.7 hPa Calm     89% 0 mm 0 W/m2
00:54 13.1 °C 11.8 °C 1029.7 hPa Calm     89% 0 mm 0 W/m2
00:59 13 °C 11.7 °C 1030 hPa Calm     89% 0 mm 0 W/m2
01:04 13 °C 11.7 °C 1030 hPa Calm     89% 0 mm 0 W/m2
01:09 12.9 °C 11.7 °C 1029.7 hPa Calm     89.8% 0 mm 0 W/m2
01:14 12.9 °C 11.8 °C 1030 hPa Calm     90% 0 mm 0 W/m2
01:19 12.9 °C 11.8 °C 1029.7 hPa Calm     90% 0 mm 0 W/m2
01:24 12.9 °C 11.8 °C 1029.7 hPa Calm     90% 0 mm 0 W/m2
01:29 12.9 °C 11.8 °C 1030 hPa Calm     90% 0 mm 0 W/m2
01:34 12.9 °C 11.8 °C 1030 hPa Calm     90% 0 mm 0 W/m2
01:39 13 °C 11.9 °C 1030 hPa Calm     90% 0 mm 0 W/m2
01:44 13 °C 11.9 °C 1030 hPa Calm     90% 0 mm 0 W/m2
01:49 13 °C 11.9 °C 1030 hPa Calm     90% 0 mm 0 W/m2
01:54 13 °C 11.9 °C 1030 hPa Calm     90% 0 mm 0 W/m2
01:59 13 °C 11.9 °C 1030 hPa Calm     90% 0 mm 0 W/m2
02:04 12.9 °C 11.8 °C 1030 hPa Calm     90% 0 mm 0 W/m2
02:09 12.9 °C 11.8 °C 1030 hPa Calm     90% 0 mm 0 W/m2
02:14 12.9 °C 11.8 °C 1030 hPa Calm     90% 0 mm 0 W/m2
02:19 12.9 °C 11.8 °C 1030 hPa Calm     90% 0 mm 0 W/m2
02:24 12.9 °C 11.8 °C 1030 hPa Calm     90% 0 mm 0 W/m2
02:29 13 °C 11.9 °C 1030 hPa Calm     90% 0 mm 0 W/m2
02:34 13.1 °C 12 °C 1030 hPa Calm     90% 0 mm 0 W/m2
02:39 13.1 °C 12 °C 1029.7 hPa Calm     90% 0 mm 0 W/m2
02:44 13.1 °C 12 °C 1029.7 hPa Calm     90% 0 mm 0 W/m2
02:49 13.1 °C 12 °C 1029.7 hPa Calm     90% 0 mm 0 W/m2
02:54 13.1 °C 11.9 °C 1029.7 hPa Calm     90% 0 mm 0 W/m2
02:59 13 °C 11.9 °C 1030 hPa Calm     90% 0 mm 0 W/m2
03:04 12.9 °C 11.8 °C 1030 hPa Calm     90% 0 mm 0 W/m2
03:09 12.9 °C 11.8 °C 1030 hPa Calm   1.6 km/h 90% 0 mm 0 W/m2
03:14 12.9 °C 11.8 °C 1030 hPa West 0.3 km/h 3.2 km/h 90% 0 mm 0 W/m2
03:19 12.9 °C 11.8 °C 1030 hPa Calm   3.2 km/h 90.2% 0 mm 0 W/m2
03:24 12.9 °C 11.9 °C 1030 hPa Calm     90.8% 0 mm 0 W/m2
03:29 12.9 °C 12.1 °C 1030 hPa Calm     91% 0 mm 0 W/m2
03:34 13 °C 12.1 °C 1030 hPa Calm     91% 0 mm 0 W/m2
03:39 13 °C 12.1 °C 1030 hPa Calm     91% 0 mm 0 W/m2
03:44 13 °C 12.1 °C 1029.7 hPa Calm     91% 0 mm 0 W/m2
03:49 13 °C 12.1 °C 1029.7 hPa Calm     91% 0 mm 0 W/m2
03:54 13 °C 12.1 °C 1029.7 hPa Calm     91% 0 mm 0 W/m2
03:59 13.1 °C 12.2 °C 1029.7 hPa Calm     91% 0 mm 0 W/m2
04:04 13 °C 12.1 °C 1029.7 hPa Calm     91% 0 mm 0 W/m2
04:09 13 °C 12.1 °C 1029.7 hPa Calm     91% 0 mm 0 W/m2
04:14 13 °C 12.1 °C 1029.7 hPa Calm     91% 0 mm 0 W/m2
04:19 13 °C 12.1 °C 1029.7 hPa Calm     91% 0 mm 0 W/m2
04:24 12.9 °C 12.1 °C 1029.3 hPa Calm     91% 0 mm 0 W/m2
04:29 13 °C 12.1 °C 1029.3 hPa Calm     91% 0 mm 0 W/m2
04:34 13 °C 12.1 °C 1029.7 hPa Calm     91% 0 mm 0 W/m2
04:39 12.9 °C 12.1 °C 1029.7 hPa Calm     91% 0 mm 0 W/m2
04:44 12.9 °C 12 °C 1029.7 hPa Calm     91% 0 mm 0 W/m2
04:49 12.9 °C 12 °C 1029.7 hPa Calm     91% 0 mm 0 W/m2
04:54 12.9 °C 12 °C 1029.7 hPa Calm     91% 0 mm 0 W/m2
04:59 12.8 °C 11.9 °C 1029.7 hPa Calm     91% 0 mm 0 W/m2
05:04 12.8 °C 11.9 °C 1029.7 hPa Calm     91% 0 mm 0 W/m2
05:09 12.8 °C 11.9 °C 1029.7 hPa Calm     91% 0 mm 0 W/m2
05:14 12.9 °C 12 °C 1029.7 hPa Calm     91% 0 mm 0 W/m2
05:19 12.8 °C 11.9 °C 1029.7 hPa Calm     91% 0 mm 0 W/m2
05:24 12.8 °C 11.9 °C 1029.7 hPa Calm     91% 0 mm 0 W/m2
05:29 12.8 °C 11.9 °C 1029.7 hPa Calm     91% 0 mm 0 W/m2
05:34 12.8 °C 11.9 °C 1029.7 hPa Calm     91% 0 mm 0 W/m2
05:39 12.8 °C 11.9 °C 1029.7 hPa Calm     91% 0 mm 0 W/m2
05:44 12.8 °C 11.9 °C 1029.7 hPa Calm   1.6 km/h 91% 0 mm 0 W/m2
05:49 12.8 °C 11.9 °C 1029.7 hPa Calm     91% 0 mm 0 W/m2
05:54 12.8 °C 11.9 °C 1029.7 hPa Calm     91% 0 mm 0 W/m2
05:59 12.8 °C 11.9 °C 1029.7 hPa Calm     91% 0 mm 0 W/m2
06:04 12.8 °C 11.9 °C 1029.7 hPa Calm     91% 0 mm 0 W/m2
06:09 12.8 °C 12 °C 1029.7 hPa Calm     92% 0 mm 0 W/m2
06:14 12.8 °C 12 °C 1029.7 hPa Calm     92% 0 mm 0 W/m2
06:19 12.8 °C 12 °C 1029.7 hPa Calm     91.8% 0 mm 0 W/m2
06:24 12.8 °C 12 °C 1029.7 hPa Calm     91.8% 0 mm 0 W/m2
06:29 12.8 °C 12 °C 1029.7 hPa Calm     91.8% 0 mm 0 W/m2
06:34 12.8 °C 12 °C 1029.7 hPa Calm     92% 0 mm 0 W/m2
06:39 12.8 °C 12 °C 1029.7 hPa Calm     92% 0 mm 0 W/m2
06:44 12.8 °C 12 °C 1029.7 hPa Calm     92% 0 mm 0 W/m2
06:49 12.8 °C 12 °C 1030 hPa Calm     92% 0 mm 0 W/m2
06:54 12.8 °C 12 °C 1030 hPa Calm     92% 0 mm 0 W/m2
06:59 12.8 °C 12 °C 1030 hPa Calm     92% 0 mm 0 W/m2
07:04 12.8 °C 12 °C 1030 hPa Calm   1.6 km/h 92% 0 mm 0 W/m2
07:09 12.7 °C 11.9 °C 1030 hPa Calm   1.6 km/h 92% 0 mm 0 W/m2
07:14 12.7 °C 11.9 °C 1030 hPa Calm     92% 0 mm 0 W/m2
07:19 12.7 °C 11.9 °C 1030 hPa Calm     92% 0 mm 0 W/m2
07:24 12.7 °C 11.9 °C 1030 hPa Calm     92% 0 mm 0 W/m2
07:29 13 °C 12.2 °C 1030 hPa Calm     92% 0 mm 0 W/m2
07:34 13.2 °C 12.3 °C 1030 hPa Calm     92% 0 mm 0 W/m2
07:39 13.2 °C 12.4 °C 1030 hPa Calm     92% 0 mm 7 W/m2
07:44 13.3 °C 12.6 °C 1030 hPa Calm     92% 0 mm 9 W/m2
07:49 13.3 °C 12.6 °C 1030 hPa Calm     92% 0 mm 14 W/m2
07:54 13.2 °C 12.3 °C 1030 hPa Calm     92% 0 mm 19 W/m2
07:59 13.1 °C 12.2 °C 1030.4 hPa Calm     92% 0 mm 26 W/m2
08:04 13 °C 12.2 °C 1030.4 hPa West 0.6 km/h 4.8 km/h 92% 0 mm 30 W/m2
08:09 13.1 °C 12.3 °C 1030.4 hPa Calm   3.2 km/h 92% 0 mm 33 W/m2
08:14 13.1 °C 12.3 °C 1030.4 hPa Calm   1.6 km/h 92% 0 mm 44 W/m2
08:19 13.2 °C 12.3 °C 1030.4 hPa Calm   1.6 km/h 92% 0 mm 54 W/m2
08:24 13.2 °C 12.4 °C 1030.4 hPa Calm   1.6 km/h 92% 0 mm 62 W/m2
08:29 13.2 °C 12.4 °C 1030.4 hPa Calm   1.6 km/h 92% 0 mm 67 W/m2
08:34 13.3 °C 12.5 °C 1030.4 hPa West 0.3 km/h 1.6 km/h 92% 0 mm 70 W/m2
08:39 13.4 °C 12.7 °C 1030.4 hPa West 1.9 km/h 12.9 km/h 92% 0 mm 76 W/m2
08:44 13.7 °C 12.9 °C 1030.4 hPa WSW 4 km/h 12.9 km/h 92% 0 mm 69 W/m2
08:49 13.8 °C 13 °C 1030.7 hPa WSW 5.1 km/h 9.7 km/h 92% 0 mm 72 W/m2
08:54 13.8 °C 13 °C 1030.7 hPa West 6.8 km/h 12.9 km/h 91.8% 0 mm 77 W/m2
08:59 13.9 °C 12.9 °C 1030.7 hPa WNW 7.6 km/h 14.5 km/h 91.2% 0 mm 93 W/m2
09:04 13.9 °C 12.9 °C 1030.7 hPa NW 9 km/h 16.1 km/h 91% 0 mm 93 W/m2
09:09 14.1 °C 13 °C 1030.7 hPa NW 7.1 km/h 11.3 km/h 90.6% 0 mm 97 W/m2
09:14 14.1 °C 13 °C 1030.7 hPa NW 10 km/h 16.1 km/h 90% 0 mm 93 W/m2
09:19 14.1 °C 13 °C 1031 hPa NNW 7.7 km/h 20.9 km/h 90% 0 mm 81 W/m2
09:24 13.9 °C 12.7 °C 1031 hPa NNE 10 km/h 24.1 km/h 89.3% 0 mm 76 W/m2
09:29 13.9 °C 12.6 °C 1031 hPa NNE 8.5 km/h 20.9 km/h 89% 0 mm 62 W/m2
09:34 13.8 °C 12.5 °C 1031 hPa North 6.9 km/h 16.1 km/h 89% 0 mm 54 W/m2
09:39 13.8 °C 12.5 °C 1031 hPa North 9.5 km/h 16.1 km/h 89% 0 mm 90 W/m2
09:44 13.8 °C 12.5 °C 1031 hPa North 10.9 km/h 16.1 km/h 89% 0 mm 202 W/m2
09:49 14.1 °C 12.7 °C 1031 hPa North 10.1 km/h 16.1 km/h 88.8% 0 mm 225 W/m2
09:54 14.3 °C 12.8 °C 1031 hPa North 11.9 km/h 17.7 km/h 88% 0 mm 290 W/m2
09:59 14.4 °C 12.8 °C 1031 hPa North 11.3 km/h 25.7 km/h 87.2% 0 mm 302 W/m2
10:04 14.4 °C 12.6 °C 1031 hPa North 11.3 km/h 27.4 km/h 86% 0 mm 262 W/m2
10:09 14.4 °C 12.5 °C 1031 hPa NNE 10.8 km/h 27.4 km/h 85.6% 0 mm 153 W/m2
10:14 14.3 °C 12.3 °C 1031 hPa NNE 7.7 km/h 19.3 km/h 85% 0 mm 214 W/m2
10:19 14.3 °C 12.2 °C 1031.4 hPa North 10.6 km/h 24.1 km/h 84.2% 0 mm 230 W/m2
10:24 14.3 °C 11.9 °C 1031.4 hPa North 16.6 km/h 27.4 km/h 83% 0 mm 239 W/m2
10:29 14.2 °C 11.8 °C 1031.4 hPa NNE 13.5 km/h 27.4 km/h 83% 0 mm 220 W/m2
10:34 14.2 °C 11.8 °C 1031.4 hPa NNE 12.6 km/h 22.5 km/h 83% 0 mm 287 W/m2
10:39 14.4 °C 12 °C 1031.4 hPa NNE 10.9 km/h 22.5 km/h 82.8% 0 mm 343 W/m2
10:44 14.7 °C 12 °C 1031.4 hPa NNE 10.3 km/h 24.1 km/h 81.4% 0 mm 355 W/m2
10:49 14.7 °C 12.1 °C 1031.4 hPa North 15.4 km/h 24.1 km/h 81% 0 mm 364 W/m2
10:54 14.8 °C 12.1 °C 1031.4 hPa North 11.4 km/h 24.1 km/h 81% 0 mm 373 W/m2
10:59 15.1 °C 12.3 °C 1031.4 hPa North 13.5 km/h 27.4 km/h 81% 0 mm 381 W/m2
11:04 15.2 °C 12.3 °C 1031.4 hPa NNE 10.3 km/h 24.1 km/h 80.2% 0 mm 394 W/m2
11:09 15.2 °C 12.2 °C 1031.4 hPa NNE 10.8 km/h 24.1 km/h 79.8% 0 mm 399 W/m2
11:14 15.2 °C 12.3 °C 1031.4 hPa NNE 9.3 km/h 20.9 km/h 80% 0 mm 413 W/m2
11:19 15.3 °C 12.4 °C 1031.4 hPa NNE 9.3 km/h 19.3 km/h 79.6% 0 mm 422 W/m2
11:24 15.4 °C 12.3 °C 1031.4 hPa North 11.3 km/h 16.1 km/h 79% 0 mm 429 W/m2
11:29 15.4 °C 12.4 °C 1031.4 hPa North 13.5 km/h 29 km/h 79.2% 0 mm 439 W/m2
11:34 15.4 °C 12.3 °C 1031.4 hPa North 13.8 km/h 29 km/h 79% 0 mm 448 W/m2
11:39 15.3 °C 12.2 °C 1031.4 hPa NNE 12.2 km/h 24.1 km/h 79% 0 mm 461 W/m2
11:44 15.6 °C 12.4 °C 1031.4 hPa NNE 11.9 km/h 20.9 km/h 78.8% 0 mm 455 W/m2
11:49 15.7 °C 12.3 °C 1031.4 hPa North 11.9 km/h 20.9 km/h 78% 0 mm 466 W/m2
11:54 15.8 °C 12.5 °C 1031.4 hPa North 10 km/h 19.3 km/h 78% 0 mm 475 W/m2
11:59 15.8 °C 12.5 °C 1031.4 hPa North 10.9 km/h 19.3 km/h 78% 0 mm 480 W/m2
12:04 15.9 °C 12.6 °C 1031.4 hPa North 5.8 km/h 17.7 km/h 78.2% 0 mm 480 W/m2
12:09 15.9 °C 12.7 °C 1031 hPa NNE 6 km/h 14.5 km/h 78% 0 mm 468 W/m2
12:14 16.1 °C 12.6 °C 1031 hPa NNE 7.2 km/h 16.1 km/h 77.4% 0 mm 501 W/m2
12:19 16.2 °C 12.7 °C 1031.4 hPa NNE 3.9 km/h 12.9 km/h 77.4% 0 mm 520 W/m2
12:24 16.3 °C 12.8 °C 1031.4 hPa NNE 5.8 km/h 17.7 km/h 77.4% 0 mm 494 W/m2
12:29 16.2 °C 12.7 °C 1031.4 hPa NNW 6 km/h 14.5 km/h 77.2% 0 mm 134 W/m2
12:34 16 °C 12.5 °C 1031.4 hPa NNE 2.9 km/h 12.9 km/h 77.2% 0 mm 179 W/m2
12:39 16.4 °C 12.9 °C 1031.4 hPa North 6.4 km/h 14.5 km/h 77.5% 0 mm 137 W/m2
12:44 16.3 °C 12.5 °C 1031.4 hPa NNW 3.2 km/h 14.5 km/h 76.2% 0 mm 128 W/m2
12:49 16.2 °C 12.6 °C 1031 hPa NNW 2.1 km/h 9.7 km/h 77% 0 mm 113 W/m2
12:54 16.2 °C 12.6 °C 1031.4 hPa NNW 3.4 km/h 9.7 km/h 77% 0 mm 109 W/m2
12:59 16.1 °C 12.6 °C 1031.4 hPa NNW 3.2 km/h 9.7 km/h 77% 0 mm 123 W/m2
13:04 15.8 °C 12.3 °C 1031.4 hPa NNW 2.1 km/h 9.7 km/h 77% 0 mm 125 W/m2
13:09 15.8 °C 12.3 °C 1031 hPa NNW 1.9 km/h 6.4 km/h 77% 0 mm 197 W/m2
13:14 16.2 °C 12.6 °C 1031 hPa NNW 4.7 km/h 11.3 km/h 76.8% 0 mm 631 W/m2
13:19 16.2 °C 12.4 °C 1031 hPa NNW 6 km/h 16.1 km/h 75.6% 0 mm 167 W/m2
13:24 15.9 °C 12.2 °C 1031 hPa NNW 5.6 km/h 14.5 km/h 76% 0 mm 223 W/m2
13:29 16.2 °C 12.6 °C 1031 hPa North 9.3 km/h 17.7 km/h 76.6% 0 mm 585 W/m2
13:34 16.2 °C 12.3 °C 1031 hPa North 6.6 km/h 17.7 km/h 75.6% 0 mm 543 W/m2
13:39 16.6 °C 12.6 °C 1031 hPa NNW 7.7 km/h 14.5 km/h 75% 0 mm 548 W/m2
13:44 16.4 °C 12.2 °C 1031 hPa NNW 8.4 km/h 16.1 km/h 74% 0 mm 244 W/m2
13:49 16.3 °C 12.2 °C 1031 hPa NNW 3.7 km/h 9.7 km/h 74.6% 0 mm 160 W/m2
13:54 16.4 °C 12.3 °C 1031 hPa NNW 5.3 km/h 12.9 km/h 74.4% 0 mm 529 W/m2
13:59 16.8 °C 12.4 °C 1031 hPa NNW 10.6 km/h 16.1 km/h 73.4% 0 mm 529 W/m2
14:04 16.8 °C 12.6 °C 1031 hPa North 6.9 km/h 14.5 km/h 73.4% 0 mm 554 W/m2
14:09 17.4 °C 12.9 °C 1031 hPa North 6 km/h 16.1 km/h 72.4% 0 mm 555 W/m2
14:14 17.3 °C 12.8 °C 1031 hPa North 4.7 km/h 11.3 km/h 72% 0 mm 540 W/m2
14:19 17.4 °C 12.8 °C 1031 hPa NNW 5.6 km/h 12.9 km/h 72.2% 0 mm 497 W/m2
14:24 17.2 °C 12.6 °C 1030.7 hPa North 6.9 km/h 16.1 km/h 72% 0 mm 510 W/m2
14:29 17.3 °C 12.8 °C 1030.7 hPa North 5.6 km/h 14.5 km/h 72.2% 0 mm 504 W/m2
14:34 17.1 °C 12.5 °C 1030.7 hPa North 5 km/h 14.5 km/h 72% 0 mm 91 W/m2
14:39 16.8 °C 12.4 °C 1030.7 hPa NNW 4.5 km/h 11.3 km/h 73% 0 mm 95 W/m2
14:44 16.9 °C 12.5 °C 1030.7 hPa NNW 3.7 km/h 11.3 km/h 73% 0 mm 468 W/m2
14:49 17.4 °C 12.7 °C 1030.7 hPa NNE 7.4 km/h 12.9 km/h 71.6% 0 mm 466 W/m2
14:54 17.6 °C 12.8 °C 1030.7 hPa NNE 2.1 km/h 11.3 km/h 71% 0 mm 366 W/m2
14:59 17.3 °C 12.6 °C 1030.7 hPa North 7.1 km/h 14.5 km/h 71.2% 0 mm 100 W/m2
15:04 17.1 °C 12.5 °C 1030.7 hPa North 6.3 km/h 14.5 km/h 72% 0 mm 425 W/m2
15:09 17.2 °C 12.6 °C 1030.7 hPa NNW 7.7 km/h 12.9 km/h 72% 0 mm 429 W/m2
15:14 17.3 °C 12.7 °C 1030.7 hPa NNW 3.9 km/h 11.3 km/h 72% 0 mm 406 W/m2
15:19 17.7 °C 12.6 °C 1030.7 hPa North 10.3 km/h 17.7 km/h 70.2% 0 mm 399 W/m2
15:24 17.3 °C 12.3 °C 1030.7 hPa North 8.7 km/h 16.1 km/h 70% 0 mm 392 W/m2
15:29 17.3 °C 12.3 °C 1030.7 hPa NNW 6.1 km/h 14.5 km/h 70% 0 mm 388 W/m2
15:34 17.3 °C 12.3 °C 1030.7 hPa North 11.9 km/h 17.7 km/h 70% 0 mm 366 W/m2
15:38 17.3 °C 12.4 °C 1030.7 hPa North 7.6 km/h 14.5 km/h 70.3% 0 mm 359 W/m2
15:44 17.4 °C 12.4 °C 1030.7 hPa North 5.8 km/h 11.3 km/h 70% 0 mm 350 W/m2
15:49 17.7 °C 12.7 °C 1030.4 hPa NNE 7.1 km/h 14.5 km/h 70.2% 0 mm 339 W/m2
15:54 17.6 °C 12.3 °C 1030.4 hPa NNE 11.9 km/h 19.3 km/h 69% 0 mm 330 W/m2
15:59 17.4 °C 12.2 °C 1030.4 hPa North 10.8 km/h 16.1 km/h 69.4% 0 mm 318 W/m2
16:04 17.3 °C 12.3 °C 1030.7 hPa NNE 7.7 km/h 16.1 km/h 70% 0 mm 316 W/m2
16:09 17.4 °C 12.4 °C 1030.4 hPa NNE 6.3 km/h 16.1 km/h 70% 0 mm 309 W/m2
16:14 17.7 °C 12.7 °C 1030.4 hPa NNE 5.3 km/h 16.1 km/h 70.4% 0 mm 290 W/m2
16:19 17.6 °C 12.3 °C 1030.4 hPa North 7.2 km/h 16.1 km/h 69.2% 0 mm 278 W/m2
16:24 17.5 °C 12.1 °C 1030.7 hPa NNE 8.4 km/h 17.7 km/h 68.4% 0 mm 265 W/m2
16:29 17.3 °C 11.8 °C 1030.4 hPa North 8.4 km/h 16.1 km/h 68% 0 mm 250 W/m2
16:34 17.3 °C 11.8 °C 1030.4 hPa North 6 km/h 14.5 km/h 68% 0 mm 232 W/m2
16:39 17.3 °C 11.9 °C 1030.4 hPa North 6.8 km/h 12.9 km/h 68.4% 0 mm 218 W/m2
16:44 17.3 °C 12.1 °C 1030.4 hPa North 6.4 km/h 14.5 km/h 69% 0 mm 200 W/m2
16:49 17.2 °C 11.9 °C 1030.4 hPa North 9.7 km/h 16.1 km/h 69% 0 mm 185 W/m2
16:54 17.1 °C 12 °C 1030.4 hPa North 8.9 km/h 14.5 km/h 69.6% 0 mm 172 W/m2
16:59 17 °C 12.1 °C 1030.4 hPa North 7.2 km/h 12.9 km/h 70.6% 0 mm 162 W/m2
17:04 17.1 °C 12.3 °C 1030.4 hPa North 4.8 km/h 11.3 km/h 71% 0 mm 151 W/m2
17:09 17.1 °C 12.3 °C 1030.4 hPa North 6.4 km/h 11.3 km/h 71% 0 mm 137 W/m2
17:14 17.1 °C 12.2 °C 1030.4 hPa North 7.7 km/h 12.9 km/h 71% 0 mm 125 W/m2
17:19 16.9 °C 12.1 °C 1030 hPa North 6.6 km/h 11.3 km/h 71% 0 mm 116 W/m2
17:24 16.9 °C 12.2 °C 1030 hPa North 4 km/h 11.3 km/h 71.4% 0 mm 104 W/m2
17:29 16.9 °C 12.3 °C 1030 hPa North 5.3 km/h 11.3 km/h 72% 0 mm 93 W/m2
17:34 16.8 °C 12.2 °C 1030 hPa North 4.5 km/h 11.3 km/h 72% 0 mm 76 W/m2
17:39 16.7 °C 12.1 °C 1030 hPa North 1.6 km/h 6.4 km/h 72% 0 mm 69 W/m2
17:44 16.7 °C 12.1 °C 1030 hPa North 1.4 km/h 6.4 km/h 72% 0 mm 53 W/m2
17:49 16.6 °C 12 °C 1030 hPa North 3.4 km/h 8 km/h 72% 0 mm 39 W/m2
17:54 16.5 °C 11.9 °C 1030 hPa North 0.3 km/h 4.8 km/h 72% 0 mm 33 W/m2
17:59 16.3 °C 11.8 °C 1030.4 hPa North 4.2 km/h 6.4 km/h 72% 0 mm 26 W/m2
18:04 16.2 °C 11.8 °C 1030.4 hPa North 3.5 km/h 8 km/h 73% 0 mm 21 W/m2
18:09 16.1 °C 11.7 °C 1030.4 hPa North 0.6 km/h 8 km/h 73% 0 mm 14 W/m2
18:14 15.8 °C 11.7 °C 1030.4 hPa North 3.2 km/h 6.4 km/h 74% 0 mm 12 W/m2
18:19 15.7 °C 11.6 °C 1030.4 hPa Calm   4.8 km/h 74.4% 0 mm 11 W/m2
18:24 15.6 °C 11.7 °C 1030.7 hPa North 1 km/h 3.2 km/h 75% 0 mm 9 W/m2
18:29 15.3 °C 11.6 °C 1030.7 hPa Calm   1.6 km/h 75.6% 0 mm 5 W/m2
18:34 15.2 °C 11.5 °C 1030.7 hPa Calm     76% 0 mm 0 W/m2
18:39 14.9 °C 11.3 °C 1030.7 hPa North 0.8 km/h 4.8 km/h 76.8% 0 mm 0 W/m2
18:44 14.7 °C 11.2 °C 1030.7 hPa North 0.3 km/h 3.2 km/h 77% 0 mm 0 W/m2
18:49 14.6 °C 11.1 °C 1031 hPa North 0.3 km/h 4.8 km/h 77% 0 mm 0 W/m2
18:54 14.4 °C 10.9 °C 1031 hPa Calm   4.8 km/h 77.4% 0 mm 0 W/m2
18:59 14.2 °C 10.9 °C 1031 hPa Calm     78% 0 mm 0 W/m2
19:04 14 °C 10.7 °C 1031 hPa Calm     78% 0 mm 0 W/m2
19:09 13.8 °C 10.7 °C 1031 hPa Calm   1.6 km/h 78.8% 0 mm 0 W/m2
19:14 13.7 °C 10.6 °C 1031 hPa Calm   4.8 km/h 79% 0 mm 0 W/m2
19:19 13.5 °C 10.4 °C 1031 hPa Calm   3.2 km/h 79% 0 mm 0 W/m2
19:24 13.2 °C 10.3 °C 1031 hPa Calm     79.8% 0 mm 0 W/m2
19:29 13.1 °C 10.2 °C 1031 hPa Calm     80% 0 mm 0 W/m2
19:34 12.9 °C 10.2 °C 1031 hPa North 1 km/h 4.8 km/h 81% 0 mm 0 W/m2
19:39 12.8 °C 10.2 °C 1031 hPa North 1.4 km/h 6.4 km/h 81% 0 mm 0 W/m2
19:44 12.9 °C 10.2 °C 1031 hPa North 2.9 km/h 8 km/h 81% 0 mm 0 W/m2
19:49 12.9 °C 10.2 °C 1031 hPa North 2.6 km/h 6.4 km/h 80.8% 0 mm 0 W/m2
19:54 13.1 °C 10.2 °C 1031 hPa Calm   6.4 km/h 80% 0 mm 0 W/m2
19:59 13.2 °C 10.3 °C 1031.4 hPa Calm   3.2 km/h 80% 0 mm 0 W/m2
20:04 13.2 °C 10.2 °C 1031.4 hPa Calm     80% 0 mm 0 W/m2
20:09 13 °C 10.2 °C 1031.4 hPa Calm     80.8% 0 mm 0 W/m2
20:14 12.8 °C 10.2 °C 1031.4 hPa Calm     81.3% 0 mm 0 W/m2
20:19 12.6 °C 10.1 °C 1031.4 hPa Calm     82% 0 mm 0 W/m2
20:24 12.6 °C 10.1 °C 1031.4 hPa Calm     82% 0 mm 0 W/m2
20:29 12.4 °C 10 °C 1031.4 hPa Calm     82.4% 0 mm 0 W/m2
20:34 12.3 °C 9.9 °C 1031.4 hPa Calm     83% 0 mm 0 W/m2
20:39 12.1 °C 9.7 °C 1031.4 hPa Calm     83% 0 mm 0 W/m2
20:44 11.8 °C 9.7 °C 1031.4 hPa Calm     83.8% 0 mm 0 W/m2
20:49 11.7 °C 9.6 °C 1031.7 hPa Calm     84% 0 mm 0 W/m2
20:54 11.6 °C 9.5 °C 1031.7 hPa Calm     84% 0 mm 0 W/m2
20:59 11.5 °C 9.6 °C 1031.7 hPa Calm     85% 0 mm 0 W/m2
21:04 11.6 °C 9.7 °C 1031.7 hPa Calm     85% 0 mm 0 W/m2
21:09 11.4 °C 9.5 °C 1031.7 hPa North 0.6 km/h 4.8 km/h 85% 0 mm 0 W/m2
21:14 11.3 °C 9.4 °C 1032.1 hPa North 4.5 km/h 12.9 km/h 85% 0 mm 0 W/m2
21:19 11.6 °C 9.7 °C 1032.1 hPa North 4.7 km/h 9.7 km/h 85% 0 mm 0 W/m2
21:24 11.8 °C 9.8 °C 1032.1 hPa North 1.4 km/h 8 km/h 84.2% 0 mm 0 W/m2
21:29 12.1 °C 9.7 °C 1032.1 hPa North 5.8 km/h 9.7 km/h 82.6% 0 mm 0 W/m2
21:34 12.3 °C 9.6 °C 1032.1 hPa North 5.5 km/h 12.9 km/h 81.3% 0 mm 0 W/m2
21:39 12.4 °C 9.5 °C 1032.1 hPa North 7.4 km/h 12.9 km/h 80.2% 0 mm 0 W/m2
21:44 12.4 °C 9.3 °C 1032.1 hPa North 4.7 km/h 12.9 km/h 79% 0 mm 0 W/m2
21:49 12.4 °C 9.3 °C 1032.1 hPa NNE 6.6 km/h 14.5 km/h 79% 0 mm 0 W/m2
21:54 12.3 °C 9.2 °C 1032.1 hPa NNE 8.7 km/h 16.1 km/h 78.2% 0 mm 0 W/m2
21:59 12.3 °C 9.1 °C 1032.1 hPa NNE 6.4 km/h 16.1 km/h 78% 0 mm 0 W/m2
22:04 12.2 °C 9 °C 1032.4 hPa NNE 2.6 km/h 14.5 km/h 78% 0 mm 0 W/m2
22:09 12.2 °C 8.9 °C 1032.1 hPa NNE 2.3 km/h 11.3 km/h 78% 0 mm 0 W/m2
22:14 12.1 °C 8.9 °C 1032.1 hPa NNE 3.9 km/h 6.4 km/h 78% 0 mm 0 W/m2
22:19 11.9 °C 8.7 °C 1032.4 hPa NNE 3.1 km/h 9.7 km/h 78% 0 mm 0 W/m2
22:24 11.9 °C 8.7 °C 1032.4 hPa NNE 4.7 km/h 9.7 km/h 78% 0 mm 0 W/m2
22:29 11.8 °C 8.6 °C 1032.4 hPa NNE 1.9 km/h 6.4 km/h 78% 0 mm 0 W/m2
22:34 11.7 °C 8.5 °C 1032.4 hPa Calm   1.6 km/h 78% 0 mm 0 W/m2
22:39 11.6 °C 8.4 °C 1032.4 hPa Calm   1.6 km/h 78% 0 mm 0 W/m2
22:44 11.6 °C 8.3 °C 1032.4 hPa Calm     78% 0 mm 0 W/m2
22:48 11.4 °C 8.3 °C 1032.4 hPa Calm     78.5% 0 mm 0 W/m2
22:54 11.3 °C 8.3 °C 1032.7 hPa Calm     79% 0 mm 0 W/m2
22:59 11.2 °C 8.2 °C 1032.4 hPa Calm     79% 0 mm 0 W/m2
23:04 11.1 °C 8.2 °C 1032.4 hPa Calm     80% 0 mm 0 W/m2
23:09 10.9 °C 8.1 °C 1032.4 hPa Calm     80% 0 mm 0 W/m2
23:14 10.7 °C 8 °C 1032.4 hPa Calm     80.4% 0 mm 0 W/m2
23:19 10.5 °C 7.9 °C 1032.4 hPa Calm     81% 0 mm 0 W/m2
23:24 10.3 °C 7.9 °C 1032.7 hPa Calm     81.8% 0 mm 0 W/m2
23:29 10.2 °C 7.8 °C 1032.7 hPa Calm     82.2% 0 mm 0 W/m2
23:34 10.2 °C 7.8 °C 1032.7 hPa Calm     83% 0 mm 0 W/m2
23:39 9.9 °C 7.6 °C 1032.7 hPa Calm     83% 0 mm 0 W/m2
23:44 9.8 °C 7.6 °C 1032.4 hPa Calm     83.2% 0 mm 0 W/m2
23:49 9.7 °C 7.6 °C 1032.4 hPa Calm     84% 0 mm 0 W/m2
23:54 9.5 °C 7.4 °C 1032.4 hPa Calm     84% 0 mm 0 W/m2
23:59 9.3 °C 7.3 °C 1032.4 hPa Calm     84.8% 0 mm 0 W/m2
Bath Spa Weather
Compliments of Weather Underground - 2 mb